San Juan, PR

12:32 AM AST on November 20, 2017 (GMT -0400)
Luis Munoz Marin International

Weather History for TJSJ - June, 2013

Change the Weather History Date:

Friday, June 28, 2013

  Actual Average Record
Temperature  
Mean Temperature 83 °F 84 °F  
Max Temperature 90 °F 89 °F 93 °F (1995)
Min Temperature 75 °F 78 °F 70 °F (1963)
Degree Days  
Heating Degree Days 0 0  
Month to date heating degree days 0 0  
Since 1 June heating degree days 0 0  
Since 1 July heating degree days 0 0  
Cooling Degree Days 18 18  
Month to date cooling degree days 481 504  
Year to date cooling degree days 2729 2669  
Since 1 June cooling degree days 481 504  
Growing Degree Days 32 (Base 50)    
Moisture  
Dew Point 74 °F    
Average Humidity 77    
Maximum Humidity 94    
Minimum Humidity 59    
Precipitation  
Precipitation 0.01 in 0.13 in 2.19 in (1929)
Month to date precipitation 11.09 4.13  
Year to date precipitation 35.62 22.81  
Sea Level Pressure  
Sea Level Pressure 30.01 in    
Wind  
Wind Speed 9 mph (East)    
Max Wind Speed 20 mph    
Max Gust Speed 28 mph    
Visibility 10 miles    
Events      
T = Trace of Precipitation, MM = Missing Value Source: NWS Daily Summary

Daily Weather History Graph

Daily Weather History Graph

Search for Another Location

Airport or City:

Trip Planner

Search our weather history database for the weather conditions in past years. The results will help you decide how hot, cold, wet, or windy it might be!

Date:

Astronomy

Jun. 28, 2013 Rise Set
Actual Time 5:50 AM AST 7:04 PM AST
Civil Twilight 5:26 AM AST 7:28 PM AST
Nautical Twilight 4:57 AM AST 7:57 PM AST
Astronomical Twilight 4:27 AM AST 8:26 PM AST
Moon 11:27 PM AST (6/28) 11:02 AM AST (6/28)
Length of Visible Light 14h 02m
Length of Day
13h 13m
Waning Gibbous, 66% of the Moon is Illuminated
Jun 28
Waning Gibbous
Jun 30
Last Quarter
Jul 8
New
Jul 15
First Quarter
Jul 22
Full

Hourly Weather History & Observations

Time (AST) Temp. Heat Index Dew Point Humidity Pressure Visibility Wind Dir Wind Speed Gust Speed Precip Events Conditions
12:56 AM 75.9 °F - 73.0 °F 91% 30.03 in 10.0 mi Calm Calm - N/A   Scattered Clouds
1:56 AM 75.0 °F - 73.0 °F 94% 30.02 in 10.0 mi Calm Calm - N/A   Partly Cloudy
2:56 AM 75.0 °F - 73.0 °F 94% 30.01 in 10.0 mi Calm Calm - N/A   Partly Cloudy
3:56 AM 75.0 °F - 73.0 °F 94% 30.00 in 10.0 mi Calm Calm - N/A   Partly Cloudy
4:56 AM 75.0 °F - 72.0 °F 90% 30.01 in 10.0 mi Calm Calm - N/A   Partly Cloudy
5:56 AM 75.0 °F - 73.0 °F 94% 30.01 in 10.0 mi Calm Calm - N/A   Scattered Clouds
6:56 AM 75.9 °F - 73.0 °F 91% 30.03 in 10.0 mi Calm Calm - N/A   Scattered Clouds
7:56 AM 79.0 °F - 73.9 °F 84% 30.03 in 10.0 mi East 6.9 mph - N/A   Scattered Clouds
8:56 AM 82.0 °F 88.6 °F 75.0 °F 79% 30.03 in 10.0 mi East 12.7 mph - N/A   Scattered Clouds
9:56 AM 84.9 °F 93.3 °F 75.0 °F 72% 30.03 in 10.0 mi East 13.8 mph - N/A   Scattered Clouds
10:56 AM 86.0 °F 93.8 °F 73.9 °F 67% 30.03 in 10.0 mi ENE 15.0 mph - N/A   Scattered Clouds
11:56 AM 88.0 °F 97.5 °F 75.0 °F 65% 30.03 in 10.0 mi ENE 15.0 mph 23.0 mph 0.01 in   Scattered Clouds
12:56 PM 88.0 °F 94.7 °F 72.0 °F 59% 30.01 in 10.0 mi East 16.1 mph - N/A   Scattered Clouds
1:56 PM 88.0 °F 96.5 °F 73.9 °F 63% 30.00 in 10.0 mi East 18.4 mph 23.0 mph N/A   Scattered Clouds
2:56 PM 88.0 °F 96.5 °F 73.9 °F 63% 29.99 in 10.0 mi ENE 15.0 mph - N/A   Scattered Clouds
3:56 PM 87.1 °F 94.5 °F 73.0 °F 63% 29.99 in 10.0 mi ENE 19.6 mph 27.6 mph N/A   Scattered Clouds
4:56 PM 84.9 °F 92.1 °F 73.9 °F 69% 29.98 in 10.0 mi East 16.1 mph - N/A   Scattered Clouds
5:56 PM 84.0 °F 91.9 °F 75.0 °F 74% 29.98 in 10.0 mi ENE 13.8 mph - N/A   Scattered Clouds
6:56 PM 82.0 °F 88.6 °F 75.0 °F 79% 30.00 in 10.0 mi East 12.7 mph - N/A   Partly Cloudy
7:56 PM 81.0 °F 86.7 °F 75.0 °F 82% 30.01 in 10.0 mi East 8.1 mph - N/A   Scattered Clouds
8:56 PM 81.0 °F 86.7 °F 75.0 °F 82% 30.02 in 10.0 mi East 10.4 mph - N/A   Scattered Clouds
9:56 PM 81.0 °F 86.2 °F 73.9 °F 79% 30.03 in 10.0 mi ESE 6.9 mph - 0.00 in   Mostly Cloudy
10:56 PM 80.1 °F 84.5 °F 73.9 °F 81% 30.04 in 10.0 mi East 5.8 mph - N/A   Mostly Cloudy
11:56 PM 80.1 °F 84.5 °F 73.9 °F 81% 30.03 in 10.0 mi East 9.2 mph - N/A   Scattered Clouds